XW-2D

Last updated on Sat Nov 16 2024 00:03:00 GMT+0000 (Coordinated Universal Time)

1 40907U 15049J 24320.61910570 .08580703 25876-5 85214-3 0 9996 2 40907 97.4242 349.3170 0006909 247.8612 112.1953 16.38207969508412

Satellite not in orbit

XW-2D